Weather Service Report


705 
ASUS45 KBOU 241706
RWRCO 

WEATHER ROUNDUP FOR COLORADO
NATIONAL WEATHER SERVICE DENVER/BOULDER CO
1100 AM MDT THU APR 24 2014

NOTE: "FAIR" INDICATES FEW OR NO CLOUDS BELOW 12000 FEET WITH NO
SIGNIFICANT WEATHER AND/OR OBSTRUCTIONS TO VISIBILITY.

COZ001>005-013-030-031-241800-
...NORTHWEST COLORADO...
  
CITY           SKY/WX    TMP DP  RH WIND       PRES   REMARKS
CRAIG          PTSUNNY   44  17  33 NE5       30.12F                  
HAYDEN         PTSUNNY   41  16  36 W3        30.14F                  
MEEKER         MOSUNNY   48  13  24 N6        30.12F                  
MOUNT WERNER   PTSUNNY   28  12  50 W7        30.16S WCI  21          
STEAMBOAT SPGS PTSUNNY   42  11  29 N3        30.12F                  
WALDEN         SUNNY     39  10  30 SW12G17   30.08F                  
$$

COZ006>008-011-241800-
...WEST CENTRAL VALLEYS...
  
CITY           SKY/WX    TMP DP  RH WIND       PRES   REMARKS
GRAND JUNCTION SUNNY     50  10  20 VRB3      30.13F                  
MONTROSE       MOSUNNY   49   9  19 CALM      30.17F                  
EAGLE          SUNNY     46  12  25 CALM      30.15F                  
RIFLE          SUNNY     50  12  21 CALM      30.13F                  
DELTA          NOT AVBL                                               
NUCLA          NOT AVBL                                               
$$

COZ017>023-064>068-241800-
...SOUTHWEST COLORADO...
  
CITY           SKY/WX    TMP DP  RH WIND       PRES   REMARKS
DURANGO        PTSUNNY   47   9  21 CALM      30.16S                  
CORTEZ         SUNNY     53  11  18 S7        30.16S                  
PAGOSA SPRINGS PTSUNNY   47   9  20 SE6G17    30.17S                  
TELLURIDE      MOSUNNY   43 -11  10 W3        30.18S                  
WOLF CREEK PAS SUNNY     30   9  40 SW15      30.24R WCI  19          
$$

COZ009-010-012-014-032>034-037-058>063-241800-
...CENTRAL COLORADO...
  
CITY           SKY/WX    TMP DP  RH WIND       PRES   REMARKS
ASPEN          SUNNY     44   4  19 N7        30.12F                  
BUENA VISTA    SUNNY     46   5  18 E5        30.07F                  
COPPER MTN     SUNNY     28  -4  24 W14G23    30.18R WCI  17          
BERTHOUD PASS  FAIR      18   9  68 NW31G39   30.11R WCI  -2          
COTTONWOOD PAS SUNNY     46  -2  13 SE5       30.12S                  
GUNNISON       SUNNY     43   9  24 E5        30.18F                  
KREMMLING      SUNNY     43   7  22 SW10G17   30.14F                  
LEADVILLE      SUNNY     34  -2  21 N6        30.13S WCI  29          
MONARCH PASS   SUNNY     25   5  42 W37       30.26R WCI   6          
SALIDA         SUNNY     53   2  12 S7G23     30.13F                  
SUNLIGHT       SUNNY     32  10  40 CALM      30.20S                  
WILKERSON PASS SUNNY     34   3  27 SW7G17    30.14R WCI  28          
$$

COZ069>075-241800-
...SAN LUIS VALLEY/SANGRE DE CRISTO MOUNTAINS...
  
CITY           SKY/WX    TMP DP  RH WIND       PRES   REMARKS
ALAMOSA        SUNNY     47  12  24 CALM      30.14F                  
LA VETA PASS   SUNNY     34   9  35 SW18G39   30.12R WCI  23          
SAGUACHE       SUNNY     48   1  14 NW13G22   30.13F                  
$$

COZ035-036-038>040-241800-
...NORTHERN COLORADO FRONT RANGE...
  
CITY           SKY/WX    TMP DP  RH WIND       PRES   REMARKS
DENVER INTL AP MOSUNNY   51  23  33 SW10      30.01F                  
DMNS CITY PARK   N/A     52  19  27 S8G15     30.00S                  
AURORA         MOSUNNY   50  21  32 SE6       30.02F                  
FRONT RANGE AP MOSUNNY   52  25  35 S6        30.02F                  
ERIE MUNI ARPT SUNNY     53  23  30 SE9       29.99F                  
BOULDER MUN AP SUNNY     54  21  28 E6        29.98S                  
CENTENNIAL     MOSUNNY   48  26  42 SE9       30.01F                  
BROOMFIELD     PTSUNNY   52  25  35 SE12      30.00F                  
FORT COLLINS   SUNNY     52  23  32 SE3       30.01F                  
LONGMONT       NOT AVBL                                               
$$

COZ041-046-047-076>085-087-088-241800-
...PIKES PEAK/PALMER DIVIDE AND SOUTHERN FOOTHILLS...
  
CITY           SKY/WX    TMP DP  RH WIND       PRES   REMARKS
COLO. SPRINGS  PTSUNNY   51  24  34 S14G21    30.04F                  
A. F. ACADEMY  SUNNY     48  28  45 VRB7      30.04S                  
ELLICOTT       NOT AVBL                                               
FALCON         SUNNY     48  24  38 SW10      30.06S                  
FORT CARSON    SUNNY     53  24  33 S12       30.02F                  
LIMON          SUNNY     50  19  29 NW12      30.04S                  
MONUMENT HILL  SUNNY     45  28  53 CALM      30.03F                  
TRINIDAD       SUNNY     50  22  33 CALM      30.07S                  
$$

COZ042>045-048>051-090-091-241800-
...NORTHEAST COLORADO...
  
CITY           SKY/WX    TMP DP  RH WIND       PRES   REMARKS
GREELEY ARPT   SUNNY     55  16  21 SW6       30.01F                  
AKRON          SUNNY     55  17  22 NW16G25   30.00R                  
BURLINGTON     SUNNY     58  12  16 NW22G28   30.00S                  
WRAY           SUNNY     61  15  16 NW15G25   29.98S                  
STERLING       NOT AVBL                                               
HOLYOKE        NOT AVBL                                               
FORT MORGAN    NOT AVBL                                               
$$

COZ086-089-092>099-241800-
...SOUTHEAST COLORADO...
  
CITY           SKY/WX    TMP DP  RH WIND       PRES   REMARKS
PUEBLO         SUNNY     54  22  28 S12       30.03F                  
LA JUNTA       SUNNY     57  20  23 N8        30.04F                  
LAMAR          SUNNY     60  19  20 N15G22    30.00F                  
SPRINGFIELD      N/A     56  29  35 N13G26    30.04R                  
$$

Return to Home page


Western Regional Climate Center, wrcc@dri.edu